Weather in Cuyo

Philippines     10°49′17″N   121°01′58″E
temp.,
°C
wind,
m/s
gust,
m/s
humid.,
%
clouds,
%
prec.,
mm/h
press.,
hPa
HPBL,
m
14 may, fri
fri1423:00+30e227715 0.4 1008109
02:00+29nne337460 0.9 1007423
05:00+29nne4375100 0.5 1007502
08:00+29ne447312 0.6 1008715
11:00+29ene127198 0.0 1008596
14:00+29nne4472100 0.0 1006640
17:00+30nne687765 0.1 1005657
20:00+30ene567696 2.6 1007136
15 may, sat
sat1523:00+30se23765 0.5 1008164
02:00+29ne337783 2.0 1006150
05:00+29ene4472100 2.2 1007512
08:00+29ene337146 2.6 1009589
11:00+29e337012 0.0 1008671
14:00+29e116629 0.0 1006601
17:00+30nnw116796 0.1 1006595
20:00+30nnw11735 0.2 1008127
16 may, sun
sun1623:00+29ssw337411 1.1 1008185
02:00+29s127064 2.4 1006309
05:00+29wsw007198 0.0 1007348
08:00+29nnw227228 0.0 1009351
11:00+29nnw22725 0.0 1008462
14:00+30nnw32725 0.0 1006539
17:00+30nne45725 0.0 1006707
20:00+30nne4678100 0.6 1007241
17 may, mon
mon1723:00+30e347620 0.5 1007112
02:00+30ene22785 0.6 1006274
05:00+29nne32755 0.0 1006476
08:00+29ne227499 0.0 1008445
11:00+30ne2270100 0.0 1008652
14:00+30n337089 0.0 1006514
17:00+30nne46758 0.0 1006660
20:00+30nne7978100 0.5 1007374
18 may, tue
tue1823:00+30ene5575100 1.2 1008117
02:00+29ne6578100 2.1 1007485
05:00+29nne5475100 0.1 1007484
08:00+29e2274100 0.1 1008371
11:00+29ene217141 0.0 1008538
14:00+30nnw117032 0.0 1006564
17:00+30nne2369100 0.1 1006594
20:00+29n3479100 1.2 1008196